Location: Newark
(34.4697°S, 57.8467°W)
Time: 22:43:24
(UTC+00:00)

Hubble Space Telescope - Visible Passes

Search period start: 15 July 2019 00:00
Search period end: 25 July 2019 00:00
Orbit: 536 x 540 km, 28.5° (Epoch: 14 July)

Date Brightness Start Highest point End Pass type
(mag) Time Alt. Az. Time Alt. Az. Time Alt. Az.
20 Jul 3.6 23:32:44 10° NNW 23:33:14 12° NNW 23:33:14 12° NNW visible
21 Jul 3.1 23:21:53 10° NW 23:23:23 18° NNW 23:23:23 18° NNW visible
22 Jul 3.2 21:32:39 10° N 21:34:02 11° NNE 21:35:27 10° NE visible
22 Jul 2.6 23:11:07 10° NW 23:13:31 24° NNW 23:13:31 24° NNW visible
23 Jul 2.2 23:00:24 10° NW 23:03:38 29° N 23:03:38 29° N visible
24 Jul 1.9 22:49:44 10° WNW 22:53:29 32° N 22:53:45 32° NNE visible
